Volver al catálogo

STARLINK-2645

ActivoComunicacionesVLEO
NORAD 48444·PAYLOAD·🇺🇸 United States

Lanzado May 9, 2021 desde Cape Canaveral Space Force Station

Loading…

Próximos Pases (próximas 24 horas)

TLE

ActualizadoSource: CelesTrak SupGP

Época: Sep 14, 2026, 21:21 UTC

1 48444C 21040S   26257.89006944 -.00003630  00000+0 -11674-3 0  2575
2 48444  53.1589  17.6824 0001227  83.5034 179.8088 15.31705537    19

Sigue STARLINK-2645 en tiempo real con AllMySat

Download on the App Store